ONEWEB-0050, 45453

Orbit data source: Space-Track

ONEWEB-0050, 45453 is a payload satellite owned by One Web (UK) in LEO that was launched on Sat, 21 Mar 2020 UTC via a SOYUZ-2-1B launch vehicle from the Tyuratam Missile And Space Complex (TTMTR). Payloads include a variety of satellites, spacecraft, and rockets equipped with specific instruments for various scientific and technological missions. These include communications satellites like Starlink; space stations such as the ISS; scientific satellites like the Hubble; Earth observation satellites from companies like Planet Labs, Umbra, and HawkEye 360; GPS; miniature CubeSats for education and research; and military/defense satellites.

Loading next visibility...
ONEWEB-0050 details
Identifier
45453, 2020-020AF
Orbit
LEO
Last TLE update20 hours ago
Origin
Flag of UKOne Web (UK)
ManufacturerOne Web
MissionPartially operational Commercial Communications
Bus & MotorARROW, Unknown motor
Mass148 kg wet, ~140 kg dry
Launch date (UTC)
2020-03-21 (5 years ago)
Launch vehicle
SOYUZ-2-1B
Launch site
Tyuratam Missile And Space Complex (TTMTR)
Object type
Payload
Rocket body
Debris
Shape & HBRTrap Box + 2 Pan, 5 m
Radar Cross Section2.957 m², Large (>1 m²)

Expand to show TLE details & history

TLE from 20 hours ago
0 ONEWEB-0050
1 45453U 20020AF  24355.69530706  .00004759  00000-0  45916-3 0  9993
2 45453  88.0022 340.8347 0005243 108.4018 251.7782 14.92696311259413
Epoch: 2024-12-20T16:41Z
Definitive object data (Epoch: 2024-12-20T16:41:14.529Z)
Latitude-0.00008°
Longitude0.76703°
Altitude593.827 km
Speed7.562 km/s
True Right ascension22h 43m 20s
True Declination0° 00' 00"
Sunlit
Object was in daylight at TLE epoch
Visualization TLE readout
Latitude58.60849°
Longitude177.29732°
Altitude596.029 km
Speed7.569 km/s
Apparent Right ascension01h 57m 17s
Apparent Declination47° 05' 35"
Sunlit
Object is in full shadow
Visualization observer readout
Local Sidereal Time11:33:59
Azimuth336.488° NNW
Elevation2.672°
Doppler factor1
Orbital elements
Apogee altitude590.04 km
Perigee altitude582.737 km
Semi-major axis6,964.526 km
Eccentricity0.0005243
Inclination88.0022°
RAAN340.8347°
Arg. of periapsis108.4018°
True anomaly251.72114°
Mean anomaly251.7782°
Eccentric anomaly251.74967°
Mean motion3.73427 °/min
BSTAR0.00045916
Orbital period96.4 mins
Loading maneuver chart data...
Loading historical data...
Loading historical data...
Loading historical data...
Loading historical data...
Loading historical data...
Loading historical data...
Loading historical data...

ONEWEB-0050 Visibility forecast

Observer location: undefined°, undefined

Span
Click to sort rows by Start time (UTC) header in descending order
Start Az.
Max El. time (UTC)
Max El. Az.
Max El.
End time (UTC)
End Az.
4 mins2024-12-21 12:35:10.109Z308.263° NW2024-12-21 12:37:10.109Z274.88° WNW15.864°2024-12-21 12:39:10.109Z244.583° WSW
6 mins2024-12-21 23:23:10.109Z158.036° S2024-12-21 23:26:10.109Z83.115° E38.362°2024-12-21 23:29:10.109Z14.581° NNE
6 mins2024-12-22 11:06:10.109Z20.021° NNE2024-12-22 11:08:10.109Z64.448° ENE36.379°2024-12-22 11:12:10.109Z161.149° S
|